• In France
  • List of Countries
  • For 7 days
  • Water Temperature
  • Satellite Maps
  • Weather Map
  • Weather Widgets
  • user-avatar
    Login

    Hourly Weather Melekshino-Vyselki

    Today, 19 September, Wednesday

    Time Temperature Precipitation Wind Pressure Humidity
    00:00 +10°C° 0 mm 3 mps 751 mmHg 83%
    01:00 +9°C° 0 mm 3 mps 751 mmHg 84%
    02:00 +9°C° 0 mm 3 mps 751 mmHg 85%
    03:00 +8°C° 0 mm 2 mps 751 mmHg 91%
    04:00 +8°C° 0 mm 3 mps 751 mmHg 91%
    05:00 +8°C° 0 mm 3 mps 751 mmHg 92%
    06:00 +8°C° 0 mm 3 mps 752 mmHg 92%
    07:00 +10°C° 0 mm 3 mps 752 mmHg 85%
    08:00 +11°C° 0 mm 4 mps 752 mmHg 79%
    09:00 +13°C° 0 mm 4 mps 752 mmHg 71%
    10:00 +13°C° 0 mm 4 mps 752 mmHg 68%
    11:00 +14°C° 0 mm 4 mps 752 mmHg 65%
    12:00 +15°C° 0 mm 4 mps 752 mmHg 62%
    13:00 +17°C° 0 mm 5 mps 751 mmHg 61%
    14:00 +19°C° 0 mm 5 mps 751 mmHg 60%
    15:00 +20°C° 0 mm 6 mps 751 mmHg 59%
    16:00 +20°C° 0 mm 5 mps 751 mmHg 63%
    17:00 +19°C° 0 mm 4 mps 751 mmHg 67%
    18:00 +19°C° 0 mm 4 mps 750 mmHg 71%
    19:00 +18°C° 0 mm 4 mps 750 mmHg 75%
    20:00 +17°C° 0 mm 4 mps 750 mmHg 79%
    21:00 +15°C° 0 mm 4 mps 750 mmHg 83%
    22:00 +15°C° 0 mm 4 mps 750 mmHg 85%
    23:00 +15°C° 0 mm 4 mps 750 mmHg 86%

    Tomorrow, 20 September, Thursday

    Time Temperature Precipitation Wind Pressure Humidity
    00:00 +14°C° 0 mm 4 mps 750 mmHg 87%
    01:00 +14°C° 0 mm 4 mps 750 mmHg 89%
    02:00 +14°C° 0 mm 4 mps 750 mmHg 91%
    03:00 +13°C° 0 mm 4 mps 750 mmHg 93%
    04:00 +13°C° 0 mm 3 mps 750 mmHg 94%
    05:00 +13°C° 0 mm 3 mps 750 mmHg 95%
    06:00 +13°C° 0 mm 3 mps 750 mmHg 95%
    07:00 +14°C° 0 mm 4 mps 750 mmHg 90%
    08:00 +17°C° 0 mm 4 mps 750 mmHg 85%
    09:00 +17°C° 0 mm 5 mps 750 mmHg 80%
    10:00 +20°C° 0 mm 5 mps 750 mmHg 74%
    11:00 +21°C° 0 mm 5 mps 750 mmHg 67%
    12:00 +23°C° 0 mm 6 mps 750 mmHg 61%
    13:00 +23°C° 0 mm 6 mps 750 mmHg 59%
    14:00 +24°C° 0 mm 6 mps 750 mmHg 57%
    15:00 +24°C° 0 mm 6 mps 750 mmHg 56%
    16:00 +23°C° 0 mm 5 mps 750 mmHg 60%
    17:00 +22°C° 0 mm 4 mps 750 mmHg 63%
    18:00 +20°C° 0 mm 4 mps 750 mmHg 67%
    19:00 +19°C° 0 mm 3 mps 751 mmHg 73%
    20:00 +17°C° 0 mm 3 mps 751 mmHg 78%
    21:00 +16°C° 0 mm 3 mps 751 mmHg 83%
    22:00 +15°C° 0 mm 2 mps 752 mmHg 86%
    23:00 +14°C° 0 mm 2 mps 752 mmHg 89%

    Day after tomorrow, 21 September, Friday

    Time Temperature Precipitation Wind Pressure Humidity
    00:00 +14°C° 0 mm 1 mps 752 mmHg 91%
    01:00 +13°C° 0 mm 1 mps 752 mmHg 92%
    02:00 +13°C° 0 mm 1 mps 753 mmHg 92%
    03:00 +13°C° 0 mm 1 mps 753 mmHg 92%
    04:00 +13°C° 0 mm 1 mps 753 mmHg 93%
    05:00 +13°C° 0 mm 1 mps 753 mmHg 93%
    06:00 +13°C° 0 mm 1 mps 754 mmHg 93%
    07:00 +15°C° 0 mm 2 mps 754 mmHg 88%
    08:00 +16°C° 0 mm 2 mps 754 mmHg 82%
    09:00 +18°C° 0 mm 2 mps 755 mmHg 76%
    10:00 +19°C° 0 mm 2 mps 755 mmHg 70%
    11:00 +21°C° 0 mm 2 mps 755 mmHg 64%
    12:00 +24°C° 0 mm 2 mps 755 mmHg 58%
    13:00 +24°C° 0 mm 2 mps 755 mmHg 55%
    14:00 +25°C° 0 mm 2 mps 755 mmHg 52%
    15:00 +25°C° 0 mm 2 mps 755 mmHg 49%
    16:00 +24°C° 0 mm 2 mps 755 mmHg 54%
    17:00 +23°C° 0 mm 1 mps 755 mmHg 59%
    18:00 +21°C° 0 mm 1 mps 755 mmHg 64%
    19:00 +20°C° 0 mm 1 mps 755 mmHg 68%
    20:00 +19°C° 0 mm 1 mps 755 mmHg 71%
    21:00 +18°C° 0 mm 1 mps 755 mmHg 74%
    22:00 +18°C° 0 mm 1 mps 755 mmHg 76%
    23:00 +18°C° 0 mm 1 mps 755 mmHg 77%

    22 September, Saturday

    Time Temperature Precipitation Wind Pressure Humidity
    00:00 +16°C° 0 mm 1 mps 755 mmHg 79%
    01:00 +16°C° 0 mm 1 mps 755 mmHg 81%
    02:00 +16°C° 0 mm 2 mps 755 mmHg 82%
    03:00 +15°C° 0 mm 2 mps 756 mmHg 84%
    04:00 +15°C° 0 mm 2 mps 755 mmHg 86%
    05:00 +15°C° 0 mm 2 mps 755 mmHg 87%
    06:00 +14°C° 0 mm 2 mps 755 mmHg 88%
    07:00 +16°C° 0 mm 3 mps 755 mmHg 82%
    08:00 +18°C° 0 mm 3 mps 755 mmHg 75%
    09:00 +19°C° 0 mm 3 mps 755 mmHg 69%
    10:00 +21°C° 0 mm 4 mps 755 mmHg 63%
    11:00 +22°C° 0 mm 4 mps 755 mmHg 57%
    12:00 +25°C° 0 mm 5 mps 755 mmHg 52%
    13:00 +25°C° 0 mm 5 mps 754 mmHg 50%
    14:00 +26°C° 0 mm 5 mps 754 mmHg 49%
    15:00 +26°C° 0 mm 5 mps 754 mmHg 48%
    16:00 +25°C° 0 mm 4 mps 753 mmHg 53%
    17:00 +22°C° 0 mm 4 mps 753 mmHg 59%
    18:00 +21°C° 0 mm 3 mps 753 mmHg 64%
    19:00 +20°C° 0 mm 3 mps 753 mmHg 66%
    20:00 +19°C° 0 mm 3 mps 753 mmHg 68%
    21:00 +18°C° 0 mm 4 mps 753 mmHg 69%
    22:00 +18°C° 0 mm 4 mps 753 mmHg 69%
    23:00 +18°C° 0 mm 4 mps 753 mmHg 69%

    23 September, Sunday

    Time Temperature Precipitation Wind Pressure Humidity
    00:00 +17°C° 0 mm 4 mps 753 mmHg 68%
    01:00 +17°C° 0 mm 4 mps 752 mmHg 70%
    02:00 +17°C° 0 mm 4 mps 752 mmHg 71%
    03:00 +15°C° 0 mm 4 mps 752 mmHg 72%
    04:00 +15°C° 0 mm 4 mps 751 mmHg 73%
    05:00 +15°C° 0 mm 4 mps 751 mmHg 74%
    06:00 +15°C° 0 mm 5 mps 751 mmHg 74%
    07:00 +16°C° 0 mm 5 mps 750 mmHg 70%
    08:00 +17°C° 0 mm 6 mps 750 mmHg 66%
    09:00 +19°C° 0 mm 6 mps 750 mmHg 62%
    10:00 +21°C° 0 mm 7 mps 749 mmHg 56%
    11:00 +23°C° 0 mm 7 mps 749 mmHg 51%
    12:00 +24°C° 0 mm 8 mps 748 mmHg 45%
    13:00 +26°C° 0 mm 8 mps 747 mmHg 44%
    14:00 +26°C° 0 mm 7 mps 747 mmHg 42%
    15:00 +26°C° 0 mm 7 mps 746 mmHg 40%
    16:00 +24°C° 0 mm 7 mps 745 mmHg 44%
    17:00 +23°C° 0 mm 6 mps 745 mmHg 47%
    18:00 +22°C° 0 mm 5 mps 744 mmHg 50%
    19:00 +21°C° 0.4 mm 6 mps 744 mmHg 55%
    20:00 +20°C° 0.4 mm 6 mps 744 mmHg 59%
    21:00 +20°C° 0.4 mm 6 mps 744 mmHg 64%
    22:00 +16°C° 1.5 mm 6 mps 744 mmHg 72%
    23:00 +14°C° 1.5 mm 6 mps 744 mmHg 80%

    24 September, Monday

    Time Temperature Precipitation Wind Pressure Humidity
    00:00 +11°C° 1.5 mm 7 mps 745 mmHg 87%
    01:00 +10°C° 0.9 mm 7 mps 745 mmHg 86%
    02:00 +10°C° 0.9 mm 7 mps 745 mmHg 85%
    03:00 +9°C° 0.9 mm 7 mps 746 mmHg 84%
    04:00 +9°C° 0.1 mm 7 mps 746 mmHg 84%
    05:00 +9°C° 0.1 mm 7 mps 747 mmHg 84%
    06:00 +9°C° 0.1 mm 6 mps 748 mmHg 84%
    07:00 +9°C° 0 mm 6 mps 748 mmHg 83%
    08:00 +10°C° 0 mm 6 mps 749 mmHg 81%
    09:00 +10°C° 0 mm 6 mps 749 mmHg 80%
    10:00 +11°C° 0 mm 6 mps 750 mmHg 73%
    11:00 +14°C° 0 mm 6 mps 751 mmHg 65%
    12:00 +15°C° 0 mm 6 mps 751 mmHg 58%
    13:00 +15°C° 0 mm 5 mps 751 mmHg 55%
    14:00 +16°C° 0 mm 5 mps 751 mmHg 52%
    15:00 +17°C° 0 mm 4 mps 752 mmHg 49%
    16:00 +16°C° 0 mm 3 mps 752 mmHg 54%
    17:00 +14°C° 0 mm 3 mps 752 mmHg 58%
    18:00 +14°C° 0 mm 2 mps 752 mmHg 63%
    19:00 +13°C° 0 mm 1 mps 752 mmHg 65%
    20:00 +12°C° 0 mm 1 mps 753 mmHg 67%
    21:00 +12°C° 0 mm 1 mps 753 mmHg 69%
    22:00 +11°C° 0 mm 1 mps 753 mmHg 70%
    23:00 +11°C° 0 mm 1 mps 753 mmHg 71%
    Show more